Location: Houston
(29.7630°N, 95.3630°W)
Time: 02:29:26
(UTC-06:00)

Saudisat 1A - Visible Passes

Search period start: 05 December 2016 00:00
Search period end: 15 December 2016 00:00
Orbit: 566 x 627 km, 64.6° (Epoch: 04 December)

Date Brightness Start Highest point End Pass type
(mag) Time Alt. Az. Time Alt. Az. Time Alt. Az.
09 Dec 10.3 18:50:11 10° N 18:50:30 11° N 18:50:30 11° N visible
10 Dec 9.4 18:59:38 10° N 19:01:45 24° N 19:01:45 24° N visible
11 Dec 7.8 19:09:30 10° NNW 19:13:46 79° NNE 19:13:46 79° NNE visible
12 Dec 8.9 19:19:41 10° NW 19:23:57 48° WSW 19:27:57 11° S visible
13 Dec 9.1 17:50:55 10° N 17:54:34 24° NE 17:58:09 10° ESE visible
13 Dec 10.3 19:30:20 10° WNW 19:33:51 24° WSW 19:37:19 10° SSW visible
14 Dec 8.2 18:00:29 10° NNW 18:04:46 46° ENE 18:08:57 10° SE visible
14 Dec 11.3 19:42:11 10° W 19:43:41 12° WSW 19:45:11 10° SW visible
